Estación meteorológica de La Molina (Cerdanya, La molina)

Consulta los datos en tiempo real de la estación meteorológica de La Molina





Hora UTC 12:15
Temperatura 9.1 ºC
Humedad 87.9 %
Presión hPa
Pluja 0.0 mm
Velocidad viento 0.9 km/h
Dirección viento

Datos diarios 2026-05-10



Hora UTC (invierno +1h; verano +2h)
Temperatura (ºC) Humedad (%) Presión (hPa) Velocidad viento (km/h) Precipitación (mm)
Hora UTC Aire Humedad Presión Vel. Dir. Vel. Max Dir. Intent. máx 5 min.
00:15 5.3 92.2 N 0.0
00:30 5.2 93.0 NNE 0.0
00:45 5.1 92.7 N 0.0
01:00 5.1 93.0 NNE 0.0
01:15 5.1 93.5 N 0.0
01:30 5.1 94.0 NNE 0.0
01:45 5.1 93.7 N 0.0
02:00 5.1 94.0 NNE 0.0
02:15 5.2 94.3 N 0.0
02:30 5.3 94.0 0.6 N 0.6 N 0.0
02:45 5.4 94.6 0.3 0.6 N 0.0
03:00 5.3 95.0 0.6 N 0.6 N 0.0
03:15 5.4 95.1 0.2 0.6 N 0.0
03:30 5.3 95.0 0.2 N 0.6 N 0.0
03:45 5.3 95.1 1.0 1.0 N 0.0
04:00 5.1 95.0 0.5 N 1.0 N 0.0
04:15 5.1 95.4 0.1 1.0 N 0.0
04:30 5.1 96.0 0.6 N 1.0 N 0.0
04:45 5.1 95.7 1.0 N 0.0
05:00 5.0 96.0 0.5 N 1.0 N 0.0
05:15 4.8 95.7 0.1 1.0 N 0.0
05:30 4.7 96.0 0.6 N 1.0 N 0.0
05:45 4.6 95.8 0.3 1.0 N 0.0
06:00 4.8 96.0 0.4 N 1.0 N 0.0
06:15 4.8 95.8 0.7 1.0 N 0.0
06:30 4.8 96.0 0.4 N 1.0 N 0.0
06:45 4.7 95.9 1.0 N 0.0
07:00 4.5 96.0 0.1 N 1.0 N 0.0
07:15 4.4 95.9 0.4 1.0 N 0.0
07:30 4.3 96.0 NNE 1.0 N 0.0
07:45 4.7 96.4 0.7 1.0 N 0.0
08:00 4.8 96.0 NNE 1.0 N 0.0
08:15 4.8 96.2 1.0 N 0.0
08:30 4.9 96.0 0.6 N 1.0 N 0.0
08:45 5.1 96.5 0.3 1.0 N 0.0
09:00 5.2 97.0 NNE 1.0 N 0.0
09:15 5.4 96.6 1.0 N 0.0
09:30 5.8 97.0 0.1 N 1.0 N 0.0
09:45 6.3 96.7 1.0 N 0.0
10:00 7.2 97.0 NNE 1.0 N 0.0
10:15 7.8 96.6 0.3 1.0 N 0.0
10:30 7.8 95.0 0.6 N 1.0 N 0.0
10:45 8.3 95.1 0.6 1.0 N 0.0
11:00 8.4 94.0 1.0 N 1.0 N 0.0
11:15 8.4 92.9 0.8 1.0 N 0.0
11:30 8.6 93.0 0.5 N 1.0 N 0.0
11:45 9.2 91.1 0.6 1.0 N 0.0
12:00 9.1 89.0 0.5 N 1.0 N 0.0
12:15 9.1 87.9 0.9 1.0 N 0.0
Máxima 9.2 97.0 1.0 N 1.0 N 0.0
Mínima 4.3 87.9 9999
Total 0.0